Location: Carrizal
(9.8472°N, 67.3428°W)
Time: 19:20:29
(UTC+00:00)

Cosmos 2074 Rocket - Pass Details

Date: 13 April 2024
Orbit: 966 x 987 km, 82.9° (Epoch: 22 May)

Event Time Altitude Azimuth Distance (km) Brightness Sun altitude
Rises 23:04:13 0° 3° (N) 3,655 7.1 -6.8°
Reaches altitude 10° 23:06:46 10° 7° (N) 2,706 6.4 -7.4°
Maximum altitude 23:12:51 60° 86° (E) 1,100 4.0 -8.8°
Drops below altitude 10° 23:18:55 10° 165° (SSE) 2,699 6.1 -10.3°
Sets 23:21:27 0° 169° (SSE) 3,645 6.8 -10.9°
